Private Wetterstation Sandau
Wetterdaten: Woche 31.12.12 - 06.01.13 (KW1)
Datum Zeit Temp. A. Feuchte A. Luftdruck Regen Wind Richtung Taupunkt Windchill
31.12.2012 00:00 5,5 C 84 % 1014,6 hPa 0,0 l/m 12,8 km/h (3 Bft) W-SW 3,0 C 2,9 C
31.12.2012 01:00 5,6 C 85 % 1014,6 hPa 0,0 l/m 12,2 km/h (3 Bft) W-SW 3,3 C 3,0 C
31.12.2012 02:00 6,0 C 85 % 1014,6 hPa 0,0 l/m 16,0 km/h (3 Bft) S-SW 3,7 C 3,0 C
31.12.2012 03:00 6,3 C 85 % 1014,4 hPa 0,0 l/m 14,5 km/h (3 Bft) SW 3,9 C 3,5 C
31.12.2012 04:00 6,8 C 84 % 1013,9 hPa 0,0 l/m 18,1 km/h (3 Bft) W-SW 4,3 C 3,6 C
31.12.2012 05:00 7,2 C 83 % 1013,4 hPa 0,0 l/m 14,0 km/h (3 Bft) W-SW 4,5 C 4,6 C
31.12.2012 06:00 7,6 C 82 % 1013,0 hPa 0,0 l/m 19,9 km/h (4 Bft) W-SW 4,6 C 4,4 C
31.12.2012 07:00 8,0 C 79 % 1012,7 hPa 0,0 l/m 19,9 km/h (4 Bft) W-SW 4,6 C 4,9 C
31.12.2012 08:00 8,1 C 79 % 1012,8 hPa 0,0 l/m 13,6 km/h (3 Bft) SW 4,6 C 5,9 C
31.12.2012 09:00 8,4 C 77 % 1013,0 hPa 0,0 l/m 15,0 km/h (3 Bft) SW 4,6 C 6,0 C
31.12.2012 10:00 8,8 C 75 % 1013,1 hPa 0,0 l/m 20,8 km/h (4 Bft) W-SW 4,6 C 5,8 C
31.12.2012 11:00 9,2 C 73 % 1012,5 hPa 0,0 l/m 19,2 km/h (3 Bft) W-SW 4,6 C 6,5 C
31.12.2012 12:00 9,0 C 73 % 1012,2 hPa 0,0 l/m 17,5 km/h (3 Bft) W-SW 4,4 C 6,5 C
31.12.2012 13:00 9,2 C 73 % 1011,7 hPa 0,0 l/m 17,9 km/h (3 Bft) SW 4,6 C 6,6 C
31.12.2012 14:00 9,2 C 72 % 1011,2 hPa 0,0 l/m 13,8 km/h (3 Bft) W-SW 4,5 C 7,2 C
31.12.2012 15:00 8,6 C 74 % 1011,1 hPa 0,0 l/m 9,8 km/h (2 Bft) S-SW 4,1 C 7,1 C
31.12.2012 16:00 7,6 C 77 % 1010,7 hPa 0,0 l/m 5,7 km/h (1 Bft) S-SW 3,8 C 7,0 C
31.12.2012 17:00 7,5 C 78 % 1010,3 hPa 0,0 l/m 10,1 km/h (2 Bft) W-SW 4,0 C 5,9 C
31.12.2012 18:00 7,5 C 78 % 1009,4 hPa 0,0 l/m 11,7 km/h (2 Bft) S-SW 3,9 C 5,4 C
31.12.2012 19:00 6,5 C 80 % 1008,7 hPa 0,0 l/m 9,4 km/h (2 Bft) S 3,4 C 4,7 C
31.12.2012 20:00 6,3 C 81 % 1007,8 hPa 0,0 l/m 13,7 km/h (3 Bft) S-SW 3,2 C 3,7 C
31.12.2012 21:00 6,8 C 79 % 1007,3 hPa 0,0 l/m 10,8 km/h (2 Bft) W-SW 3,4 C 4,7 C
31.12.2012 22:00 6,6 C 80 % 1006,7 hPa 0,0 l/m 10,9 km/h (2 Bft) S-SW 3,3 C 4,5 C
31.12.2012 23:00 6,5 C 80 % 1006,2 hPa 0,0 l/m 11,9 km/h (2 Bft) S 3,3 C 4,2 C
01.01.2013 00:00 6,3 C 81 % 1005,5 hPa 0,0 l/m 13,1 km/h (3 Bft) S-SW 3,3 C 3,8 C
01.01.2013 01:00 6,6 C 81 % 1004,5 hPa 0,0 l/m 12,3 km/h (3 Bft) S-SW 3,6 C 4,2 C
01.01.2013 02:00 7,2 C 78 % 1004,0 hPa 0,0 l/m 16,4 km/h (3 Bft) SW 3,7 C 4,4 C
01.01.2013 03:00 7,4 C 77 % 1003,5 hPa 0,0 l/m 16,6 km/h (3 Bft) S 3,6 C 4,5 C
01.01.2013 04:00 7,4 C 77 % 1002,8 hPa 0,0 l/m 14,8 km/h (3 Bft) SW 3,6 C 4,8 C
01.01.2013 05:00 7,3 C 77 % 1002,4 hPa 0,0 l/m 13,2 km/h (3 Bft) S 3,6 C 5,0 C
01.01.2013 06:00 7,2 C 78 % 1002,1 hPa 0,0 l/m 12,7 km/h (3 Bft) S-SW 3,6 C 4,9 C
01.01.2013 07:00 7,2 C 79 % 1002,0 hPa 0,0 l/m 11,8 km/h (2 Bft) W-SW 3,7 C 5,1 C
01.01.2013 08:00 6,9 C 81 % 1002,1 hPa 0,0 l/m 11,7 km/h (2 Bft) S-SW 3,9 C 4,7 C
01.01.2013 09:00 6,9 C 82 % 1002,3 hPa 0,0 l/m 10,2 km/h (2 Bft) SW 4,0 C 5,1 C
01.01.2013 10:00 7,1 C 80 % 1002,5 hPa 0,0 l/m 14,5 km/h (3 Bft) SW 3,9 C 4,4 C
01.01.2013 11:00 7,6 C 78 % 1002,4 hPa 0,0 l/m 14,9 km/h (3 Bft) W-SW 3,9 C 5,0 C
01.01.2013 12:00 7,9 C 77 % 1002,4 hPa 0,0 l/m 17,4 km/h (3 Bft) W-SW 4,2 C 5,1 C
01.01.2013 13:00 7,8 C 79 % 1002,4 hPa 0,0 l/m 14,4 km/h (3 Bft) W-SW 4,3 C 5,4 C
01.01.2013 14:00 7,4 C 82 % 1002,6 hPa 0,0 l/m 13,0 km/h (3 Bft) W-SW 4,5 C 5,1 C
01.01.2013 15:00 7,0 C 86 % 1002,8 hPa 0,5 l/m 10,5 km/h (2 Bft) SW 4,7 C 5,0 C
01.01.2013 16:00 6,6 C 88 % 1003,3 hPa 0,5 l/m 9,8 km/h (2 Bft) S-SW 4,8 C 4,8 C
01.01.2013 17:00 6,5 C 89 % 1003,6 hPa 0,5 l/m 8,1 km/h (2 Bft) S-SW 4,8 C 4,9 C
01.01.2013 18:00 6,4 C 90 % 1004,2 hPa 0,0 l/m 10,4 km/h (2 Bft) W-SW 4,8 C 4,3 C
01.01.2013 19:00 6,4 C 90 % 1005,2 hPa 0,5 l/m 8,7 km/h (2 Bft) W-SW 4,9 C 4,9 C
01.01.2013 20:00 6,3 C 91 % 1006,5 hPa 0,5 l/m 9,8 km/h (2 Bft) W-NW 4,9 C 4,5 C
01.01.2013 21:00 5,4 C 86 % 1007,6 hPa 0,0 l/m 8,1 km/h (2 Bft) W 3,3 C 3,7 C
01.01.2013 22:00 5,1 C 87 % 1008,3 hPa 0,0 l/m 8,7 km/h (2 Bft) W 3,1 C 3,2 C
01.01.2013 23:00 4,4 C 88 % 1009,2 hPa 0,0 l/m 12,6 km/h (3 Bft) W 2,7 C 1,6 C
02.01.2013 00:00 3,7 C 89 % 1009,8 hPa 0,0 l/m 11,6 km/h (2 Bft) W-SW 2,1 C 1,0 C
02.01.2013 01:00 3,4 C 90 % 1010,4 hPa 0,0 l/m 10,9 km/h (2 Bft) W-SW 1,9 C 0,7 C
02.01.2013 02:00 3,7 C 89 % 1010,9 hPa 0,0 l/m 12,6 km/h (3 Bft) W-SW 2,0 C 0,7 C
02.01.2013 03:00 4,1 C 88 % 1011,3 hPa 0,0 l/m 12,7 km/h (3 Bft) SW 2,3 C 1,1 C
02.01.2013 04:00 4,4 C 86 % 1011,6 hPa 0,0 l/m 10,5 km/h (2 Bft) SW 2,3 C 1,9 C
02.01.2013 05:00 4,5 C 87 % 1011,9 hPa 0,0 l/m 10,8 km/h (2 Bft) W-SW 2,4 C 2,1 C
02.01.2013 06:00 4,9 C 86 % 1012,4 hPa 0,0 l/m 12,8 km/h (3 Bft) W 2,7 C 2,1 C
02.01.2013 07:00 5,1 C 86 % 1013,4 hPa 0,0 l/m 16,0 km/h (3 Bft) W-SW 2,9 C 1,8 C
02.01.2013 08:00 5,0 C 86 % 1014,7 hPa 0,0 l/m 15,0 km/h (3 Bft) W-SW 2,8 C 1,9 C
02.01.2013 09:00 4,7 C 87 % 1015,7 hPa 0,5 l/m 18,7 km/h (3 Bft) W-SW 2,7 C 1,0 C
02.01.2013 10:00 4,8 C 88 % 1016,7 hPa 0,0 l/m 16,8 km/h (3 Bft) W 2,9 C 1,6 C
02.01.2013 11:00 5,4 C 88 % 1017,6 hPa 0,0 l/m 16,2 km/h (3 Bft) W-SW 3,5 C 2,3 C
02.01.2013 12:00 6,1 C 86 % 1018,1 hPa 0,0 l/m 17,5 km/h (3 Bft) W 4,0 C 2,9 C
02.01.2013 13:00 6,1 C 86 % 1018,8 hPa 0,0 l/m 10,9 km/h (2 Bft) W 4,0 C 4,0 C
02.01.2013 14:00 6,2 C 85 % 1019,4 hPa 0,0 l/m 10,3 km/h (2 Bft) W 4,0 C 4,3 C
02.01.2013 15:00 5,9 C 87 % 1020,5 hPa 0,0 l/m 13,5 km/h (3 Bft) W-SW 3,8 C 3,1 C
02.01.2013 16:00 5,6 C 88 % 1021,4 hPa 0,0 l/m 15,0 km/h (3 Bft) W 3,7 C 2,6 C
02.01.2013 17:00 5,5 C 87 % 1022,1 hPa 0,0 l/m 12,8 km/h (3 Bft) W-SW 3,6 C 2,8 C
02.01.2013 18:00 5,3 C 88 % 1022,7 hPa 0,0 l/m 12,5 km/h (3 Bft) W-SW 3,5 C 2,8 C
02.01.2013 19:00 5,4 C 89 % 1023,6 hPa 0,5 l/m 11,2 km/h (2 Bft) W 3,8 C 3,1 C
02.01.2013 20:00 5,4 C 88 % 1024,1 hPa 0,0 l/m 13,8 km/h (3 Bft) W-SW 3,6 C 2,5 C
02.01.2013 21:00 5,2 C 87 % 1024,4 hPa 0,0 l/m 11,6 km/h (2 Bft) W-SW 3,2 C 2,6 C
02.01.2013 22:00 5,2 C 87 % 1024,6 hPa 0,0 l/m 11,9 km/h (2 Bft) W-SW 3,3 C 2,6 C
02.01.2013 23:00 5,3 C 86 % 1024,4 hPa 0,0 l/m 11,0 km/h (2 Bft) W-SW 3,1 C 3,0 C
03.01.2013 00:00 5,1 C 86 % 1024,3 hPa 0,0 l/m 9,9 km/h (2 Bft) SW 2,9 C 3,0 C
03.01.2013 01:00 5,5 C 84 % 1023,9 hPa 0,0 l/m 11,4 km/h (2 Bft) W 3,1 C 3,2 C
03.01.2013 02:00 5,8 C 83 % 1023,8 hPa 0,0 l/m 13,8 km/h (3 Bft) W-SW 3,2 C 3,1 C
03.01.2013 03:00 5,7 C 84 % 1022,9 hPa 0,5 l/m 14,3 km/h (3 Bft) W-SW 3,3 C 2,9 C
03.01.2013 04:00 5,8 C 85 % 1022,1 hPa 0,0 l/m 16,2 km/h (3 Bft) SW 3,5 C 2,7 C
03.01.2013 05:00 5,5 C 87 % 1021,4 hPa 0,0 l/m 14,4 km/h (3 Bft) W-SW 3,6 C 2,6 C
03.01.2013 06:00 5,5 C 90 % 1020,8 hPa 1,0 l/m 16,3 km/h (3 Bft) W-SW 4,0 C 2,3 C
03.01.2013 07:00 6,0 C 92 % 1020,7 hPa 0,0 l/m 21,5 km/h (4 Bft) W 4,7 C 2,2 C
03.01.2013 08:00 6,7 C 92 % 1021,0 hPa 0,0 l/m 17,9 km/h (3 Bft) W 5,4 C 3,6 C
03.01.2013 09:00 7,3 C 92 % 1021,1 hPa 0,0 l/m 12,2 km/h (3 Bft) W 6,1 C 5,0 C
03.01.2013 10:00 8,1 C 91 % 1021,3 hPa 0,0 l/m 17,8 km/h (3 Bft) W-SW 6,7 C 5,4 C
03.01.2013 11:00 8,8 C 91 % 1021,5 hPa 0,0 l/m 14,4 km/h (3 Bft) W-NW 7,4 C 6,6 C
03.01.2013 12:00 9,4 C 90 % 1021,9 hPa 0,0 l/m 14,7 km/h (3 Bft) W-NW 7,8 C 7,4 C
03.01.2013 13:00 9,9 C 90 % 1021,7 hPa 0,0 l/m 14,2 km/h (3 Bft) W 8,3 C 8,2 C
03.01.2013 14:00 9,8 C 92 % 1022,1 hPa 0,0 l/m 16,0 km/h (3 Bft) W 8,6 C 7,7 C
03.01.2013 15:00 9,9 C 92 % 1022,4 hPa 0,0 l/m 15,3 km/h (3 Bft) W 8,6 C 7,9 C
03.01.2013 16:00 9,9 C 92 % 1023,0 hPa 0,5 l/m 13,3 km/h (3 Bft) W 8,6 C 8,2 C
03.01.2013 17:00 9,7 C 92 % 1023,6 hPa 0,5 l/m 10,1 km/h (2 Bft) W 8,5 C 8,4 C
03.01.2013 18:00 9,5 C 92 % 1024,6 hPa 0,5 l/m 14,6 km/h (3 Bft) NW 8,2 C 7,5 C
03.01.2013 19:00 9,1 C 89 % 1025,1 hPa 0,0 l/m 18,5 km/h (3 Bft) W-NW 7,3 C 6,4 C
03.01.2013 20:00 8,6 C 87 % 1025,9 hPa 0,0 l/m 18,1 km/h (3 Bft) NW 6,5 C 5,9 C
03.01.2013 21:00 8,3 C 87 % 1026,3 hPa 0,0 l/m 12,8 km/h (3 Bft) W-NW 6,1 C 6,3 C
03.01.2013 22:00 7,9 C 87 % 1026,5 hPa 0,0 l/m 15,3 km/h (3 Bft) W-NW 5,9 C 5,4 C
03.01.2013 23:00 7,5 C 86 % 1027,4 hPa 0,0 l/m 14,7 km/h (3 Bft) NW 5,4 C 5,0 C
04.01.2013 00:00 7,1 C 86 % 1027,7 hPa 0,0 l/m 15,4 km/h (3 Bft) W-NW 4,8 C 4,4 C
04.01.2013 01:00 6,9 C 86 % 1027,9 hPa 0,0 l/m 13,4 km/h (3 Bft) W 4,7 C 4,4 C
04.01.2013 02:00 6,7 C 87 % 1028,4 hPa 0,0 l/m 11,8 km/h (2 Bft) W-NW 4,7 C 4,4 C
04.01.2013 03:00 6,8 C 88 % 1028,8 hPa 0,0 l/m 15,1 km/h (3 Bft) W 5,0 C 4,1 C
04.01.2013 04:00 6,2 C 88 % 1028,7 hPa 0,0 l/m 6,8 km/h (2 Bft) W 4,5 C 5,2 C
04.01.2013 05:00 5,8 C 90 % 1028,3 hPa 0,0 l/m 8,9 km/h (2 Bft) W 4,3 C 4,2 C
04.01.2013 06:00 5,7 C 90 % 1028,4 hPa 0,0 l/m 9,6 km/h (2 Bft) W 4,1 C 3,7 C
04.01.2013 07:00 6,3 C 90 % 1028,7 hPa 0,0 l/m 10,6 km/h (2 Bft) W-NW 4,9 C 4,3 C
04.01.2013 08:00 7,1 C 89 % 1028,9 hPa 0,0 l/m 9,4 km/h (2 Bft) W-NW 5,5 C 5,4 C
04.01.2013 09:00 7,7 C 89 % 1028,4 hPa 0,0 l/m 7,1 km/h (2 Bft) W-NW 5,9 C 6,7 C
04.01.2013 10:00 8,1 C 88 % 1028,6 hPa 0,0 l/m 6,1 km/h (2 Bft) W-NW 6,3 C 7,3 C
04.01.2013 11:00 8,5 C 89 % 1028,0 hPa 0,0 l/m 5,2 km/h (1 Bft) W-SW 6,7 C 7,9 C
04.01.2013 12:00 8,5 C 91 % 1026,5 hPa 2,1 l/m 11,9 km/h (2 Bft) W 7,1 C 6,7 C
04.01.2013 13:00 8,9 C 93 % 1025,3 hPa 0,5 l/m 14,7 km/h (3 Bft) W 7,8 C 6,7 C
04.01.2013 14:00 9,4 C 93 % 1024,7 hPa 0,0 l/m 17,3 km/h (3 Bft) NW 8,3 C 7,1 C
04.01.2013 15:00 9,6 C 91 % 1024,5 hPa 0,5 l/m 18,9 km/h (3 Bft) NW 8,3 C 7,0 C
04.01.2013 16:00 9,5 C 91 % 1024,2 hPa 0,0 l/m 19,9 km/h (4 Bft) W 8,1 C 6,8 C
04.01.2013 17:00 9,5 C 91 % 1023,9 hPa 0,0 l/m 18,6 km/h (3 Bft) NW 8,1 C 6,9 C
04.01.2013 18:00 9,4 C 91 % 1023,8 hPa 1,0 l/m 17,9 km/h (3 Bft) W-NW 7,9 C 6,9 C
04.01.2013 19:00 9,2 C 91 % 1024,1 hPa 1,0 l/m 15,4 km/h (3 Bft) NW 7,9 C 7,1 C
04.01.2013 20:00 8,9 C 93 % 1024,2 hPa 2,6 l/m 14,3 km/h (3 Bft) W-NW 7,8 C 6,8 C
04.01.2013 21:00 8,8 C 94 % 1024,1 hPa 2,1 l/m 13,2 km/h (3 Bft) W-NW 7,8 C 6,8 C
04.01.2013 22:00 8,8 C 94 % 1024,2 hPa 0,5 l/m 10,8 km/h (2 Bft) NW 7,8 C 7,2 C
04.01.2013 23:00 8,5 C 93 % 1024,5 hPa 1,0 l/m 10,6 km/h (2 Bft) NW 7,5 C 7,0 C
05.01.2013 00:00 8,3 C 93 % 1024,4 hPa 0,5 l/m 7,6 km/h (2 Bft) NW 7,3 C 7,2 C
05.01.2013 01:00 8,2 C 94 % 1024,4 hPa 0,0 l/m 10,6 km/h (2 Bft) W-NW 7,3 C 6,4 C
05.01.2013 02:00 8,1 C 94 % 1024,8 hPa 0,0 l/m 11,2 km/h (2 Bft) NW 7,2 C 6,3 C
05.01.2013 03:00 8,0 C 94 % 1025,3 hPa 0,0 l/m 11,1 km/h (2 Bft) NW 7,1 C 6,2 C
05.01.2013 04:00 7,9 C 94 % 1025,5 hPa 0,5 l/m 8,8 km/h (2 Bft) NW 7,0 C 6,5 C
05.01.2013 05:00 7,8 C 94 % 1025,7 hPa 0,0 l/m 7,9 km/h (2 Bft) NW 6,9 C 6,6 C
05.01.2013 06:00 7,8 C 94 % 1026,0 hPa 0,0 l/m 7,3 km/h (2 Bft) NW 6,9 C 6,7 C
05.01.2013 07:00 7,8 C 94 % 1026,5 hPa 0,0 l/m 7,2 km/h (2 Bft) N-NW 6,9 C 6,8 C
05.01.2013 08:00 7,6 C 94 % 1027,0 hPa 0,0 l/m 6,8 km/h (2 Bft) N-NW 6,6 C 6,6 C
05.01.2013 09:00 7,6 C 93 % 1027,7 hPa 0,0 l/m 6,9 km/h (2 Bft) N-NW 6,6 C 6,6 C
05.01.2013 10:00 7,8 C 93 % 1028,2 hPa 0,0 l/m 4,4 km/h (1 Bft) N 6,7 C 7,4 C
05.01.2013 11:00 7,7 C 93 % 1028,5 hPa 0,0 l/m 6,1 km/h (2 Bft) N 6,7 C 6,9 C
05.01.2013 12:00 7,5 C 92 % 1028,5 hPa 0,0 l/m 5,9 km/h (2 Bft) N 6,4 C 6,7 C
05.01.2013 13:00 7,8 C 92 % 1028,6 hPa 0,0 l/m 5,8 km/h (2 Bft) NO 6,5 C 7,0 C
05.01.2013 14:00 7,8 C 90 % 1028,9 hPa 0,0 l/m 6,3 km/h (2 Bft) N-NO 6,2 C 6,9 C
05.01.2013 15:00 7,5 C 90 % 1029,2 hPa 0,0 l/m 3,4 km/h (1 Bft) N 5,9 C 7,4 C
05.01.2013 16:00 7,3 C 90 % 1029,2 hPa 0,0 l/m 2,4 km/h (1 Bft) N-NW 5,8 C 7,3 C
05.01.2013 17:00 7,3 C 90 % 1029,4 hPa 0,0 l/m 0,4 km/h (0 Bft) N-NW 5,8 C 7,3 C
05.01.2013 18:00 7,2 C 91 % 1029,3 hPa 0,0 l/m 0,3 km/h (0 Bft) NW 5,8 C 7,2 C
05.01.2013 19:00 7,2 C 91 % 1029,2 hPa 0,0 l/m 2,5 km/h (1 Bft) W-NW 5,9 C 7,1 C
05.01.2013 20:00 7,2 C 92 % 1029,3 hPa 0,0 l/m 1,7 km/h (1 Bft) W-NW 6,0 C 7,1 C
05.01.2013 21:00 7,1 C 93 % 1029,1 hPa 0,0 l/m 2,9 km/h (1 Bft) W-NW 6,0 C 7,1 C
05.01.2013 22:00 7,1 C 93 % 1028,9 hPa 0,0 l/m 2,0 km/h (1 Bft) W 6,0 C 7,0 C
05.01.2013 23:00 7,1 C 94 % 1028,6 hPa 0,0 l/m 4,9 km/h (1 Bft) NW 6,1 C 6,5 C
06.01.2013 00:00 7,0 C 94 % 1028,5 hPa 0,5 l/m 7,5 km/h (2 Bft) W-NW 6,1 C 5,8 C
06.01.2013 01:00 6,8 C 94 % 1028,3 hPa 0,0 l/m 8,2 km/h (2 Bft) NW 5,9 C 5,3 C
06.01.2013 02:00 6,4 C 93 % 1028,0 hPa 0,0 l/m 10,0 km/h (2 Bft) NW 5,4 C 4,5 C
06.01.2013 03:00 6,2 C 92 % 1027,3 hPa 0,0 l/m 6,3 km/h (2 Bft) W-NW 5,1 C 5,2 C
06.01.2013 04:00 6,2 C 93 % 1026,6 hPa 0,0 l/m 10,6 km/h (2 Bft) NW 5,1 C 4,1 C
06.01.2013 05:00 6,2 C 92 % 1026,2 hPa 0,0 l/m 8,2 km/h (2 Bft) W 5,0 C 4,6 C
06.01.2013 06:00 6,1 C 92 % 1025,4 hPa 0,0 l/m 6,9 km/h (2 Bft) W-NW 4,9 C 4,9 C
06.01.2013 07:00 6,1 C 93 % 1025,1 hPa 0,0 l/m 5,2 km/h (1 Bft) W 5,0 C 5,3 C
06.01.2013 08:00 6,1 C 93 % 1024,3 hPa 0,0 l/m 7,5 km/h (2 Bft) W-SW 5,1 C 4,7 C
06.01.2013 09:00 6,2 C 93 % 1023,6 hPa 0,5 l/m 4,8 km/h (1 Bft) W 5,2 C 5,6 C
06.01.2013 10:00 6,4 C 94 % 1023,3 hPa 0,0 l/m 9,9 km/h (2 Bft) W-NW 5,5 C 4,5 C
06.01.2013 11:00 6,8 C 94 % 1022,8 hPa 0,0 l/m 12,2 km/h (2 Bft) NW 5,9 C 4,5 C
06.01.2013 12:00 7,0 C 93 % 1022,6 hPa 0,5 l/m 7,2 km/h (2 Bft) NW 6,0 C 5,8 C
06.01.2013 13:00 7,3 C 93 % 1022,4 hPa 0,0 l/m 8,0 km/h (2 Bft) NW 6,2 C 6,0 C
06.01.2013 14:00 7,5 C 93 % 1022,5 hPa 0,0 l/m 8,0 km/h (2 Bft) W-NW 6,5 C 6,4 C
06.01.2013 15:00 7,6 C 93 % 1022,4 hPa 0,0 l/m 7,0 km/h (2 Bft) NW 6,5 C 6,5 C
06.01.2013 16:00 7,6 C 93 % 1022,3 hPa 0,0 l/m 8,0 km/h (2 Bft) N-NW 6,5 C 6,3 C
06.01.2013 17:00 7,6 C 93 % 1022,8 hPa 0,0 l/m 7,7 km/h (2 Bft) NW 6,5 C 6,4 C
06.01.2013 18:00 7,6 C 93 % 1023,2 hPa 0,0 l/m 6,4 km/h (2 Bft) NW 6,5 C 6,7 C
06.01.2013 19:00 7,5 C 93 % 1023,5 hPa 0,5 l/m 4,2 km/h (1 Bft) NW 6,5 C 7,2 C
06.01.2013 20:00 7,5 C 94 % 1023,9 hPa 0,0 l/m 6,4 km/h (2 Bft) N-NW 6,5 C 6,5 C
06.01.2013 21:00 7,4 C 94 % 1024,4 hPa 0,0 l/m 5,7 km/h (1 Bft) N-NW 6,5 C 6,6 C
06.01.2013 22:00 7,3 C 94 % 1024,8 hPa 0,0 l/m 4,2 km/h (1 Bft) N 6,4 C 7,0 C
06.01.2013 23:00 7,1 C 94 % 1025,3 hPa 0,5 l/m 4,8 km/h (1 Bft) N-NO 6,3 C 6,7 C
Min-Datum _ 02.01.13 31.12.12 01.01.13 - 04.01.13 - 02.01.13 02.01.13
_ Min-Zeit 01:11 14:01 06:56 - 10:06 - 00:56 00:46
Minimum _ 3,3 C 72 % 1001,9 hPa - 0,0 km/h (0 Bft) - 1,8 C -0,7 C
Max-Datum _ 03.01.13 04.01.13 05.01.13 04.01.13 03.01.13 - 03.01.13 03.01.13
_ Max-Zeit 13:36 13:41 17:46 20:01 07:51 - 14:36 13:36
Maximum _ 10,1 C 94 % 1029,6 hPa 2,6 l/m 34,9 km/h
W (5 Bft)
- 8,7 C 10,1 C
Durchschnitt _ 7,1 C 88 % 1019,2 hPa #21,8 l/m 11,4 km/h (2 Bft) W-SW 5,1 C 5,1 C
(c) by David Heller